CZ-4C R/B, 44623

Orbit data source: Space-Track

CZ-4C R/B, 44623 is space debris in SSO originally from a launch on Fri, 04 Oct 2019 UTC launched from the Taiyaun Space Center, China (TSC). Debris objects in space refer to the collection of defunct objects orbiting the Earth. Examples of debris include non-operational satellites, rocket bodies, and fragments generated from explosions, collisions, or faulty payload assembly.

Not visible in the next 10 days
Identifier
44623, 2019-066B
Orbit
SSO
Country
Flag of CNCN / PRC
Related business
Manufacturer
SAST
Mission
Spacecraft
Bus & Motor
CZ-4 STAGE 3, Unknown motor
Mass
~1,000 kg wet, ~1,000 kg dry
Launch date (UTC)
2019-10-04 (6 years ago)
Launch vehicle
Unknown
Launch site
Taiyaun Space Center, China (TSC)
Object type
Payload
Rocket body
Debris
Shape & HBR
Cyl, 1.4 m
Radar Cross Section
7.676 m², Large (>1 m²)

Expand to show TLE details & history
Last TLE update: 22 hours ago

TLE from 22 hours ago
0 CZ-4C R/B
1 44623U 19066B   25261.20532276  .00079691  00000-0  50684-3 0  9992
2 44623  97.7843 346.7632 0032911 358.8516   1.2667 15.75438557331821
Epoch: 2025-09-18T04:55Z
TLE epoch observation values (Epoch: 2025-09-18T04:55:39.886Z)
Latitude
0.00002°
Longitude
-84.52325°
Altitude
324.416 km
Speed
7.726 km/s
True Right ascension
23h 07m 03s
True Declination
0° 00' 00"
Sunlit
Object was in full shadow at epoch
Visualization orbit readout
Latitude
Unknown
Longitude
Unknown
Altitude
Unknown
Speed
Unknown
Apparent Right ascension
Unknown
Apparent Declination
Unknown
Sunlit
N/A
Visualization observer readout
Local Sidereal Time
19:32:30
Azimuth
Unknown
Elevation
Unknown
Doppler factor
Unknown
Orbital elements
Apogee altitude
362.404 km
Perigee altitude
318.182 km
Semi-major axis
6,718.43 km
Eccentricity
0.00329
Inclination
97.7843°
RAAN
346.7632°
Arg. of periapsis
358.8516°
True anomaly
1.27507°
Mean anomaly
1.2667°
Eccentric anomaly
1.27088°
Mean motion
3.94132 °/min
Orbital period
91.34 mins
BSTAR
0.00050684
Loading maneuver chart data...
Computing Atmospheric mass density...
Loading historical data...
Loading historical data...
Loading historical data...
Loading historical data...
Loading historical data...
Loading historical data...
Loading historical data...
Other satellites on launch #66 in the year 2019 (2019-10-04 UTC)

Documentation

Showing up to 5 results
|